FW7016 Weather Reports


time (UTC)temp
C
wind
direction
speed
KPH
gust
KPH
rain 1hr
cm
rain 24hr
cm
rain mn
cm
humidity
%
barometer
mb
20260505014520 10 105 0.0 1.6 0.00 0.00 0.00 66 1011.8
20260505014018 11 154 3.2 4.8 0.00 0.00 0.00 63 1011.6
20260505013515 10 142 8.0 14.5 0.00 0.00 0.00 64 1011.9
20260505013012 9 197 1.6 3.2 0.00 0.00 0.00 75 1011.9
20260505012510 9 174 6.4 14.5 0.00 0.00 0.00 72 1011.9
20260505012007 10 172 11.3 16.1 0.00 0.00 0.00 77 1011.7
20260505011503 10 159 12.9 17.7 0.00 0.00 0.00 69 1011.6
20260505011000 12 231 14.5 24.1 0.00 0.00 0.00 60 1011.5
20260505010455 12 238 3.2 9.7 0.00 0.00 0.00 50 1011.4
20260505005951 12 213 1.6 3.2 0.00 0.00 0.00 52 1011.2
20260505005448 13 191 0.0 1.6 0.00 0.00 0.00 53 1011.1
20260505004946 13 215 3.2 4.8 0.00 0.00 0.00 49 1011.0
20260505004443 13 203 4.8 8.0 0.00 0.00 0.00 47 1010.6
20260505003939 13 151 11.3 14.5 0.00 0.00 0.00 47 1010.5
20260505003437 13 73 9.7 25.7 0.00 0.00 0.00 45 1010.6
20260505002933 14 56 12.9 17.7 0.00 0.00 0.00 44 1010.4
20260505002429 14 81 11.3 14.5 0.00 0.00 0.00 40 1010.4
20260505001928 14 102 16.1 20.9 0.00 0.00 0.00 40 1010.4
20260505001425 15 80 6.4 16.1 0.00 0.00 0.00 40 1010.4
20260505000922 15 37 11.3 20.9 0.00 0.00 0.00 40 1010.3
20260505000420 15 51 1.6 14.5 0.00 0.00 0.00 39 1010.2
20260504235916 15 46 8.0 14.5 0.00 0.00 0.00 39 1010.1
20260504235414 15 46 12.9 14.5 0.00 0.00 0.00 39 1009.9
20260504234909 15 50 11.3 16.1 0.00 0.00 0.00 39 1010.2
20260504234408 15 47 8.0 20.9 0.00 0.00 0.00 39 1009.9
20260504233904 15 54 9.7 14.5 0.00 0.00 0.00 38 1010.1
20260504233359 15 114 8.0 11.3 0.00 0.00 0.00 37 1009.9
20260504232856 15 45 6.4 16.1 0.00 0.00 0.00 38 1010.1
20260504232353 16 63 8.0 22.5 0.00 0.00 0.00 37 1010.1
20260504231850 15 65 8.0 16.1 0.00 0.00 0.00 37 1009.9
20260504231346 15 95 0.0 4.8 0.00 0.00 0.00 38 1010.1
20260504230843 15 60 1.6 3.2 0.00 0.00 0.00 37 1009.8
20260504230341 16 66 6.4 12.9 0.00 0.00 0.00 37 1009.8
20260504225839 15 179 3.2 9.7 0.00 0.00 0.00 37 1010.1
20260504225335 16 227 3.2 4.8 0.00 0.00 0.00 37 1010.2
20260504224833 16 100 4.8 11.3 0.00 0.00 0.00 36 1009.8
20260504224330 16 110 12.9 14.5 0.00 0.00 0.00 36 1009.6
20260504223826 16 101 4.8 11.3 0.00 0.00 0.00 37 1009.8
20260504223322 16 96 11.3 14.5 0.00 0.00 0.00 36 1009.9
20260504222819 16 25 6.4 11.3 0.00 0.00 0.00 36 1009.7
20260504222316 16 56 9.7 12.9 0.00 0.00 0.00 37 1009.7
20260504221815 16 91 6.4 14.5 0.00 0.00 0.00 38 1009.8
20260504221310 16 46 4.8 14.5 0.00 0.00 0.00 37 1010.1
20260504220807 16 40 14.5 17.7 0.00 0.00 0.00 37 1010.1
20260504220304 16 32 17.7 17.7 0.00 0.00 0.00 37 1010.2
20260504215801 15 23 11.3 29.0 0.00 0.00 0.00 38 1010.2
20260504215258 16 51 11.3 14.5 0.00 0.00 0.00 37 1010.4
20260504214754 16 33 8.0 14.5 0.00 0.00 0.00 37 1009.9
20260504214251 15 66 8.0 14.5 0.00 0.00 0.00 38 1010.3
20260504213747 16 36 14.5 22.5 0.00 0.00 0.00 37 1010.4
20260504213243 15 30 12.9 17.7 0.00 0.00 0.00 37 1010.3
20260504212740 16 37 14.5 20.9 0.00 0.00 0.00 37 1010.5
20260504212237 16 24 24.1 38.6 0.00 0.00 0.00 37 1010.1
20260504211735 16 56 11.3 20.9 0.00 0.00 0.00 36 1010.4
20260504211231 16 9 20.9 25.7 0.00 0.00 0.00 37 1010.4
20260504210728 16 26 17.7 32.2 0.00 0.00 0.00 36 1010.5
20260504210225 16 73 3.2 16.1 0.00 0.00 0.00 37 1010.5
20260504205722 16 43 11.3 20.9 0.00 0.00 0.00 37 1010.5
20260504205220 16 33 24.1 33.8 0.00 0.00 0.00 37 1010.6
20260504204718 16 351 14.5 29.0 0.00 0.00 0.00 37 1010.4
20260504204216 16 34 19.3 27.4 0.00 0.00 0.00 37 1010.5
20260504203715 16 26 19.3 27.4 0.00 0.00 0.00 37 1010.4
20260504203212 16 16 32.2 35.4 0.00 0.00 0.00 37 1010.3
20260504202711 16 18 17.7 22.5 0.00 0.00 0.00 36 1010.5
20260504202204 16 94 8.0 16.1 0.00 0.00 0.00 37 1010.4
20260504201700 17 36 20.9 32.2 0.00 0.00 0.00 37 1010.3
20260504201158 16 341 22.5 32.2 0.00 0.00 0.00 36 1010.3
20260504200655 17 6 30.6 37.0 0.00 0.00 0.00 36 1010.6
20260504200152 17 19 20.9 32.2 0.00 0.00 0.00 36 1010.4
20260504195647 17 26 20.9 27.4 0.00 0.00 0.00 36 1010.1
20260504195144 17 12 30.6 37.0 0.00 0.00 0.00 34 1010.3
20260504194641 16 358 29.0 43.5 0.00 0.00 0.00 38 1010.2
20260504194137 18 58 24.1 29.0 0.00 0.00 0.00 36 1010.3
20260504193633 17 16 24.1 35.4 0.00 0.00 0.00 34 1010.2
20260504193132 17 68 11.3 25.7 0.00 0.00 0.00 35 1010.1
20260504192629 17 35 16.1 35.4 0.00 0.00 0.00 35 1010.2
20260504192127 17 59 27.4 40.2 0.00 0.00 0.00 36 1010.3
20260504191625 17 32 20.9 35.4 0.00 0.00 0.00 34 1010.3
20260504191121 17 355 24.1 41.8 0.00 0.00 0.00 36 1010.1
20260504190617 17 22 17.7 33.8 0.00 0.00 0.00 35 1009.8
20260504190114 17 26 27.4 40.2 0.00 0.00 0.00 34 1010.1
20260504185610 17 41 16.1 48.3 0.00 0.00 0.00 35 1010.2
20260504185107 17 11 20.9 40.2 0.00 0.00 0.00 35 1010.3
20260504184603 17 10 33.8 49.9 0.00 0.00 0.00 35 1010.2
20260504184058 17 35 17.7 38.6 0.00 0.00 0.00 35 1010.3
20260504183555 17 25 38.6 53.1 0.00 0.00 0.00 34 1010.4
20260504183054 18 40 30.6 41.8 0.00 0.00 0.00 33 1010.3
20260504182550 18 352 27.4 33.8 0.00 0.00 0.00 32 1010.3
20260504182048 17 27 29.0 43.5 0.00 0.00 0.00 34 1010.4
20260504181544 18 30 30.6 41.8 0.00 0.00 0.00 33 1010.2
20260504181043 18 359 38.6 41.8 0.00 0.00 0.00 32 1010.4
20260504180541 17 9 35.4 43.5 0.00 0.00 0.00 32 1010.4
20260504180040 18 26 32.2 38.6 0.00 0.00 0.00 31 1010.5
20260504175537 17 43 29.0 41.8 0.00 0.00 0.00 31 1010.4
20260504175034 17 9 29.0 37.0 0.00 0.00 0.00 31 1010.3
20260504174532 17 20 24.1 37.0 0.00 0.00 0.00 31 1010.3
20260504174028 17 28 49.9 56.3 0.00 0.00 0.00 30 1010.2
20260504173525 17 28 40.2 51.5 0.00 0.00 0.00 31 1010.1
20260504173022 16 72 25.7 43.5 0.00 0.00 0.00 31 1009.9
20260504172518 16 26 45.1 53.1 0.00 0.00 0.00 31 1010.2
20260504172015 17 7 37.0 62.8 0.00 0.00 0.00 31 1009.6
20260504171512 18 6 16.1 17.7 0.00 0.00 0.00 24 1009.6
20260504171009 18 38 9.7 11.3 0.00 0.00 0.00 24 1009.5
20260504170504 19 19 16.1 24.1 0.00 0.00 0.00 24 1009.5
20260504160425 18 40 4.8 14.5 0.00 0.00 0.00 24 1009.5
20260504150849 17 318 11.3 22.5 0.00 0.00 0.00 24 1009.5
20260504150345 17 359 11.3 17.7 0.00 0.00 0.00 26 1009.7
20260504141315 13 275 17.7 20.9 0.00 0.00 0.00 31 1010.2
20260504140812 13 255 16.1 20.9 0.00 0.00 0.00 32 1010.2
20260504140308 13 290 9.7 20.9 0.00 0.00 0.00 34 1009.9
20260504130737 8 212 4.8 8.0 0.00 0.00 0.00 50 1009.7
20260504130232 8 219 3.2 4.8 0.00 0.00 0.00 54 1009.7
20260504120156 2 270 9.7 14.5 0.00 0.00 0.00 65 1009.8
20260504110624 2 282 3.2 8.0 0.00 0.00 0.00 68 1009.8
20260504110120 2 201 0.0 1.6 0.00 0.00 0.00 68 1010.1
20260504100545 2 268 0.0 0.0 0.00 0.00 0.00 68 1010.2
20260504081939 1 181 1.6 1.6 0.00 0.00 0.00 67 1010.9
20260504081436 1 225 4.8 11.3 0.00 0.00 0.00 67 1011.1
20260504080932 2 280 4.8 9.7 0.00 0.00 0.00 66 1011.1
20260504080428 2 223 0.0 0.0 0.00 0.00 0.00 68 1011.2
20260504070356 2 207 0.0 1.6 0.00 0.00 0.00 62 1012.3
20260504050744 5 197 0.0 0.0 0.00 0.00 0.00 64 1012.3
20260504050241 5 197 0.0 0.0 0.00 0.00 0.00 64 1012.8
20260504045738 5 207 0.0 0.0 0.00 0.00 0.00 65 1012.5
20260504045233 5 206 0.0 0.0 0.00 0.00 0.00 62 1012.4
20260504044731 6 198 0.0 0.0 0.00 0.00 0.00 68 1012.9
20260504044228 6 201 0.0 0.0 0.00 0.00 0.00 55 1012.7
20260504043725 6 229 1.6 4.8 0.00 0.00 0.00 54 1012.7
20260504043222 6 239 0.0 3.2 0.00 0.00 0.00 55 1012.9
20260504042720 7 250 4.8 4.8 0.00 0.00 0.00 54 1013.0
20260504042216 7 204 0.0 0.0 0.00 0.00 0.00 53 1013.0
20260504041712 7 224 0.0 0.0 0.00 0.00 0.00 52 1013.1
20260504041208 7 217 0.0 0.0 0.00 0.00 0.00 52 1013.1
20260504040705 7 233 0.0 4.8 0.00 0.00 0.00 51 1013.1
20260504040202 8 282 0.0 4.8 0.00 0.00 0.00 48 1013.1
20260504035658 9 194 3.2 3.2 0.00 0.00 0.00 50 1013.4
20260504035155 10 180 0.0 3.2 0.00 0.00 0.00 47 1013.2
20260504034653 10 129 4.8 4.8 0.00 0.00 0.00 47 1013.1
20260504034150 11 157 4.8 4.8 0.00 0.00 0.00 46 1012.8
20260504033648 11 115 4.8 8.0 0.00 0.00 0.00 46 1012.5
20260504033145 10 102 4.8 8.0 0.00 0.00 0.00 46 1012.8
20260504032641 11 132 6.4 9.7 0.00 0.00 0.00 45 1012.8
20260504032139 11 97 3.2 3.2 0.00 0.00 0.00 45 1013.0
20260504031636 11 106 0.0 3.2 0.00 0.00 0.00 45 1012.9
20260504031132 11 124 4.8 9.7 0.00 0.00 0.00 44 1012.9
20260504030629 11 125 4.8 4.8 0.00 0.00 0.00 44 1012.7
20260504030125 10 111 4.8 4.8 0.00 0.00 0.00 45 1012.7
20260504025622 10 78 3.2 8.0 0.00 0.00 0.00 45 1012.9
20260504025119 11 75 1.6 8.0 0.00 0.00 0.00 44 1012.7
20260504024616 11 87 4.8 4.8 0.00 0.00 0.00 44 1012.7
20260504024113 11 52 3.2 8.0 0.00 0.00 0.00 44 1012.7
20260504023609 12 33 8.0 11.3 0.00 0.00 0.00 43 1012.8
20260504023105 12 50 6.4 17.7 0.00 0.00 0.00 41 1012.4
20260504022601 13 55 6.4 14.5 0.00 0.00 0.00 40 1012.2
20260504022058 13 77 9.7 20.9 0.00 0.00 0.00 40 1012.5
20260504021555 13 56 4.8 11.3 0.00 0.00 0.00 40 1012.8
20260504021052 13 49 8.0 14.5 0.00 0.00 0.00 39 1012.3
20260504020549 14 48 9.7 12.9 0.00 0.00 0.00 38 1012.7
20260504020045 15 42 11.3 16.1 0.00 0.00 0.00 38 1012.7
20260504015542 15 41 16.1 25.7 0.00 0.00 0.00 36 1012.5
20260504015038 16 43 14.5 32.2 0.00 0.00 0.00 35 1012.4